Regional Weather Roundup
Issued by NWS

Home | Current Version | Previous Version | Graphics & Text | Print | Product List | Glossary On
Versions: 1 2 3 4 5 6 7 8 9 10 11 12 13 14 15 16 17 18 19 20 21 22 23 24 25 26 27 28 29 30 31 32 33 34 35 36 37 38 39 40 41 42 43 44 45 46 47 48 49 50
000
ASUS43 KMPX 021010
RWRMN
WEATHER ROUNDUP FOR MINNESOTA
NATIONAL WEATHER SERVICE TWIN CITIES/CHANHASSEN MN
500 AM CDT THU OCT 02 2014


NOTE: "FAIR" INDICATES FEW OR NO CLOUDS BELOW 12,000 FEET WITH NO
SIGNIFICANT WEATHER AND/OR OBSTRUCTIONS TO VISIBILITY. N/A MEANS
CURRENT SKY AND/OR WEATHER CONDITIONS ARE NOT AVAILABLE.

MNZ060>063-068>070-021100-
   Twin Cities Metro

CITY           SKY/WX    TMP DP  RH WIND       PRES   REMARKS
TWIN CITIES    CLOUDY    58  56  93 CALM      29.83S FOG
ST PAUL        CLOUDY    57  57 100 CALM      29.84S FOG
CRYSTAL        CLOUDY    59  56  89 CALM      29.82S FOG
BLAINE         FOG       59  59 100 CALM      29.83S VSB 3/4
LAKEVILLE      CLOUDY    55  55 100 CALM      29.84R FOG
EDEN PRAIRIE   CLOUDY    57  56  96 NE6       29.82S FOG
SOUTH ST PAUL  CLOUDY    57  56  96 CALM      29.83S FOG
LAKE ELMO      CLOUDY    55  55 100 CALM      29.84S FOG
$$
MNZ001>005-007-008-013>017-022>024-027-028-021100-
   Northwest Minnesota

CITY           SKY/WX    TMP DP  RH WIND       PRES   REMARKS
BEMIDJI        PTCLDY    51  49  92 SW7       29.80R
HALLOCK        PTCLDY    46  45  93 CALM      29.76S
ROSEAU         PTCLDY    50  45  81 SW6       29.76S
WARROAD        PTCLDY    50  46  87 SW6       29.77R
THIEF RVR FALL CLEAR     48  46  93 W6        29.78F
CROOKSTON      PTCLDY    46  45  93 W6        29.80F
FOSSTON        MOCLDY    48  46  93 CALM      29.81R
DETROIT LAKES  PTCLDY    52  46  82 W6        29.85R
PARK RAPIDS    PTCLDY    46  45  96 SW6       29.83R FOG
MAHNOMEN       FAIR      47  46  95 W6        29.82R
$$
MNZ006-009>011-018-025>026-021100-
   North Central Minnesota

CITY           SKY/WX    TMP DP  RH WIND       PRES   REMARKS
BAUDETTE       CLOUDY    52  49  89 SW5       29.76S
FLAG ISLAND    MOCLDY    52  48  87 SW8       29.73S
INTL FALLS     CLOUDY    53  51  93 SW5       29.77R
WASKISH        CLOUDY    55  54  94 CALM      29.78R
BIG FORK       FOG       50  48  93 CALM      29.79F VSB 1/4
LONGVILLE      FOG       46  45  93 CALM      29.81R VSB 1
GRAND RAPIDS     N/A    N/A N/A N/A S5        29.80S VSB 1/2
CRANE LAKE     CLOUDY    54  52  94 S3        29.80S
ORR            CLOUDY    54  50  87 CALM      29.77S
COOK           CLOUDY    54  52  94 SW3       29.80F
WALKER         PTSUNNY   50  48  93 W3        29.80R
$$
MNZ012-019>021-037-021100-
   Northeast Minnesota

CITY           SKY/WX    TMP DP  RH WIND       PRES   REMARKS
DULUTH         DRIZZLE   52  50  93 SW7       29.83R FOG
ELY            CLOUDY    52  50  93 SW3       29.81S FOG
HIBBING        CLOUDY    54  52  93 CALM      29.80F
EVELETH        CLOUDY    52  52 100 CALM      29.82F FOG
DULUTH HARBOR  CLOUDY    55  54  94 SW3       29.84S
TWO HARBORS    CLOUDY    52  46  82 CALM      29.81F FOG
SILVER BAY     MOCLDY    50  50 100 CALM      29.81S FOG
GRAND MARAIS     N/A     51  50  96 CALM      29.82R
G MARAIS ARPRT FOG       48  45  87 SW3       29.82R VSB 1/4
$$
MNZ029>031-032-039>041-046>048-054>057-064-021100-
   West Central Minnesota

CITY           SKY/WX    TMP DP  RH WIND       PRES   REMARKS
FERGUS FALLS   PTCLDY    48  46  93 W5        29.85F
WHEATON        MOCLDY    50  46  87 W5        29.88R
MORRIS         PTCLDY    46  45  93 W5        29.85R
ALEXANDRIA     PTCLDY    49  47  93 W5        29.85R
ELBOW LAKE     FAIR      47  47  98 W3        29.85S
WADENA         PTCLDY    48  48 100 W7        29.84R
GLENWOOD       CLEAR     46  46 100 NW6       29.85S
APPLETON       PTCLDY    48  46  93 W6        29.85S
BENSON         PTCLDY    45  45 100 CALM      29.85R
ORTONVILLE     MOCLDY    52  46  82 NW5       29.86S
MADISON        PTCLDY    52  48  87 NW5       29.85F
WILLMAR        MOCLDY    46  45  93 NW5       29.86S FOG
$$
MNZ033>034-036-042>043-049>051-058-059-021100-
   Central Minnesota

CITY           SKY/WX    TMP DP  RH WIND       PRES   REMARKS
ST CLOUD       FOG       55  53  93 CALM      29.84R VSB 1/2
SAUK CENTRE    FAIR      43  43 100 CALM      29.85R FOG
PAYNESVILLE    FOG       45  45 100 CALM      29.85S VSB 3/4
AITKIN         CLOUDY    55  50  82 CALM      29.81S HAZE
PINE RIVER     FOG       48  48 100 CALM      29.85R VSB 1/4
BRAINERD       CLOUDY    51  51 100 SW7       29.84R FOG
STAPLES        FOG       43  43 100 CALM      29.84R VSB 1
LONG PRAIRIE   FAIR      43  43 100 CALM      29.85R FOG
LITTLE FALLS   FOG       50  50 100 CALM      29.85R VSB 1/4
LITCHFIELD     FOG       54  54 100 CALM      29.85S VSB 1/4
BUFFALO        CLOUDY    56  53  89 N5        29.85S
MAPLE LAKE     CLOUDY    56  56  98 CALM      29.85S FOG
$$
MNZ037-044-045-052-053-021100-
   East Central Minnesota

CITY           SKY/WX    TMP DP  RH WIND       PRES   REMARKS
PRINCETON      CLOUDY    57  55  94 SW3       29.85R
MORA           CLOUDY    54  52  94 CALM      29.85S FOG
CAMBRIDGE      MOCLDY    57  50  77 CALM      29.83R HAZE
RUSH CITY      LGT RAIN  55  54  97 CALM      29.83F
MOOSE LAKE     CLOUDY    52  52 100 CALM      29.81S FOG
HINCKLEY       CLOUDY    54  54 100 CALM      29.84S FOG
CLOQUET        CLOUDY    52  52 100 CALM      29.82F FOG
MCGREGOR       CLOUDY    54  52  94 CALM      29.82S
$$
MNZ071>073-080-081-089-090-097-098-021100-
   Southwest Minnesota

CITY           SKY/WX    TMP DP  RH WIND       PRES   REMARKS
MONTEVIDEO     CLEAR     50  48  93 N5        29.85F
GRANITE FALLS  CLEAR     49  48  98 NW6       29.86S
CANBY          PTCLDY    49  47  93 NW6       29.87S
MARSHALL       FAIR      48  43  81 NW6       29.84S
REDWOOD FALLS  CLEAR     52  51  97 NW5       29.84R FOG
OLIVIA         CLEAR     50  46  87 NW5       29.84R FOG
PIPESTONE      CLOUDY    52  46  82 N5        29.84S
WINDOM         PTCLDY    52  52 100 N7        29.84R
WORTHINGTON    PTCLDY    48  46  93 N3        29.85S
JACKSON        CLOUDY    55  54  94 N6        29.83S FOG
TRACY          PTCLDY    53  49  87 NW6       29.85S
SLAYTON        MOCLDY    50  48  92 CALM      29.85S
$$
MNZ065>067-074>077-082>085-091>093-021100-
   South Central Minnesota

CITY           SKY/WX    TMP DP  RH WIND       PRES   REMARKS
MANKATO        CLOUDY    57  54  88 NE6       29.82F VSB 1/2
NEW ULM        FOG       52  52 100 N3        29.83S VSB 1/2
ST JAMES       FOG       59  57  94 N3        29.83S VSB 1
FAIRMONT       CLOUDY    57  54  88 N7        29.82S VSB 1/2
GLENCOE        CLOUDY    56  56 100 N5        29.83S FOG
FARIBAULT      CLOUDY    57  57 100 CALM      29.83S FOG
OWATONNA       CLOUDY    55  55 100 NE3       29.83S FOG
WASECA         CLOUDY    55  52  88 CALM      29.84S FOG
ALBERT LEA     FOG       55  54  94 CALM      29.82R VSB<1/4
$$
MNZ078>079-086>088-094>096-021100-
   Southeast Minnesota

CITY           SKY/WX    TMP DP  RH WIND       PRES   REMARKS
ROCHESTER      FOG       54  53  97 CALM      29.83S VSB 1/4
RED WING       CLOUDY    54  52  94 CALM      29.82F FOG
STANTON        CLOUDY    58  56  94 CALM      29.83R FOG
DODGE CENTER   FOG       55  54  94 CALM      29.83R VSB 1
WINONA         FOG       54  54 100 NW5       29.83S VSB 1
AUSTIN         FOG       54  54 100 CALM      29.82S VSB 1/2
PRESTON        FOG       55  54  98 CALM      29.84R VSB 1/4
$$
ABBREVIATIONS USED IN REMARKS
   TC - TEMPERATURES IN CELSIUS
  WCI - WIND CHILL INDEX
   HX - HEAT INDEX
  VSB - VISIBILITY
$$



USA.gov is the U.S. government's official web portal to all federal, state and local government web resources and services.